Year,Month,Day,Hour,Minute,Value (Times are PST for temperature in C)
2005,09,20,00,00,10.80
2005,09,20,00,01,10.80
2005,09,20,00,02,10.70
2005,09,20,00,03,10.70
2005,09,20,00,04,10.60
2005,09,20,00,05,10.60
2005,09,20,00,06,10.50
2005,09,20,00,07,10.40
2005,09,20,00,08,10.40
2005,09,20,00,09,10.40
2005,09,20,00,10,10.40
2005,09,20,00,11,10.30
2005,09,20,00,12,10.30
2005,09,20,00,13,10.20
2005,09,20,00,14,10.20
2005,09,20,00,15,10.20
2005,09,20,00,16,10.20
2005,09,20,00,17,10.10
2005,09,20,00,18,10.20
2005,09,20,00,19,10.20
2005,09,20,00,20,10.20
2005,09,20,00,21,10.20
2005,09,20,00,22,10.30
2005,09,20,00,23,10.30
2005,09,20,00,24,10.40
2005,09,20,00,25,10.40
2005,09,20,00,26,10.40
2005,09,20,00,27,10.40
2005,09,20,00,28,10.40
2005,09,20,00,29,10.40
2005,09,20,00,30,10.40
2005,09,20,00,31,10.50
2005,09,20,00,32,10.60
2005,09,20,00,33,10.60
2005,09,20,00,34,10.60
2005,09,20,00,35,10.70
2005,09,20,00,36,10.70
2005,09,20,00,37,10.70
2005,09,20,00,38,10.80
2005,09,20,00,39,10.80
2005,09,20,00,40,10.80
2005,09,20,00,41,10.80
2005,09,20,00,42,10.80
2005,09,20,00,43,10.80
2005,09,20,00,44,10.80
2005,09,20,00,45,10.80
2005,09,20,00,46,10.80
2005,09,20,00,47,10.80
2005,09,20,00,48,10.80
2005,09,20,00,49,10.80
2005,09,20,00,50,10.80
2005,09,20,00,51,10.80
2005,09,20,00,52,10.90
2005,09,20,00,53,10.90
2005,09,20,00,54,10.90
2005,09,20,00,55,10.90
2005,09,20,00,56,10.90
2005,09,20,00,57,11.00
2005,09,20,00,58,11.10
2005,09,20,00,59,11.10
2005,09,20,01,00,11.10
2005,09,20,01,01,11.10
2005,09,20,01,02,11.20
2005,09,20,01,03,11.20
2005,09,20,01,04,11.20
2005,09,20,01,05,11.20
2005,09,20,01,06,11.20
2005,09,20,01,07,11.20
2005,09,20,01,08,11.20
2005,09,20,01,09,11.20
2005,09,20,01,10,11.20
2005,09,20,01,11,11.20
2005,09,20,01,12,11.30
2005,09,20,01,13,11.30
2005,09,20,01,14,11.30
2005,09,20,01,15,11.30
2005,09,20,01,16,11.30
2005,09,20,01,17,11.30
2005,09,20,01,18,11.30
2005,09,20,01,19,11.30
2005,09,20,01,20,11.30
2005,09,20,01,21,11.30
2005,09,20,01,22,11.40
2005,09,20,01,23,11.40
2005,09,20,01,24,11.40
2005,09,20,01,25,11.40
2005,09,20,01,26,11.40
2005,09,20,01,27,11.40
2005,09,20,01,28,11.40
2005,09,20,01,29,11.40
2005,09,20,01,30,11.40
2005,09,20,01,31,11.40
2005,09,20,01,32,11.30
2005,09,20,01,33,11.30
2005,09,20,01,34,11.30
2005,09,20,01,35,11.30
2005,09,20,01,36,11.30
2005,09,20,01,37,11.20
2005,09,20,01,38,11.20
2005,09,20,01,39,11.20
2005,09,20,01,40,11.10
2005,09,20,01,41,11.10
2005,09,20,01,42,11.10
2005,09,20,01,43,11.10
2005,09,20,01,44,11.00
2005,09,20,01,45,10.90
2005,09,20,01,46,10.90
2005,09,20,01,47,10.90
2005,09,20,01,48,10.90
2005,09,20,01,49,10.80
2005,09,20,01,50,10.80
2005,09,20,01,51,10.70
2005,09,20,01,52,10.70
2005,09,20,01,53,10.70
2005,09,20,01,54,10.60
2005,09,20,01,55,10.60
2005,09,20,01,56,10.60
2005,09,20,01,57,10.60
2005,09,20,01,58,10.60
2005,09,20,01,59,10.60
2005,09,20,02,00,10.50
2005,09,20,02,01,10.40
2005,09,20,02,02,10.40
2005,09,20,02,03,10.40
2005,09,20,02,04,10.40
2005,09,20,02,05,10.30
2005,09,20,02,06,10.30
2005,09,20,02,07,10.30
2005,09,20,02,08,10.20
2005,09,20,02,09,10.20
2005,09,20,02,10,10.20
2005,09,20,02,11,10.20
2005,09,20,02,12,10.10
2005,09,20,02,13,10.10
2005,09,20,02,14,10.10
2005,09,20,02,15,10.10
2005,09,20,02,16,10.10
2005,09,20,02,17,10.00
2005,09,20,02,18,9.90
2005,09,20,02,19,9.90
2005,09,20,02,20,9.90
2005,09,20,02,21,9.90
2005,09,20,02,22,9.90
2005,09,20,02,23,9.90
2005,09,20,02,24,9.90
2005,09,20,02,25,9.80
2005,09,20,02,26,9.80
2005,09,20,02,27,9.80
2005,09,20,02,28,9.80
2005,09,20,02,29,9.80
2005,09,20,02,30,9.80
2005,09,20,02,31,9.70
2005,09,20,02,32,9.70
2005,09,20,02,33,9.70
2005,09,20,02,34,9.70
2005,09,20,02,35,9.70
2005,09,20,02,36,9.70
2005,09,20,02,37,9.70
2005,09,20,02,38,9.60
2005,09,20,02,39,9.60
2005,09,20,02,40,9.60
2005,09,20,02,41,9.60
2005,09,20,02,42,9.60
2005,09,20,02,43,9.50
2005,09,20,02,44,9.50
2005,09,20,02,45,9.50
2005,09,20,02,46,9.40
2005,09,20,02,47,9.40
2005,09,20,02,48,9.40
2005,09,20,02,49,9.40
2005,09,20,02,50,9.40
2005,09,20,02,51,9.30
2005,09,20,02,52,9.30
2005,09,20,02,53,9.30
2005,09,20,02,54,9.30
2005,09,20,02,55,9.20
2005,09,20,02,56,9.20
2005,09,20,02,57,9.20
2005,09,20,02,58,9.20
2005,09,20,02,59,9.20
2005,09,20,03,00,9.20
2005,09,20,03,01,9.10
2005,09,20,03,02,9.10
2005,09,20,03,03,9.10
2005,09,20,03,04,9.10
2005,09,20,03,05,9.00
2005,09,20,03,06,9.00
2005,09,20,03,07,9.00
2005,09,20,03,08,9.00
2005,09,20,03,09,8.90
2005,09,20,03,10,8.90
2005,09,20,03,11,8.90
2005,09,20,03,12,8.90
2005,09,20,03,13,8.90
2005,09,20,03,14,8.90
2005,09,20,03,15,8.90
2005,09,20,03,16,8.90
2005,09,20,03,17,8.80
2005,09,20,03,18,8.80
2005,09,20,03,19,8.80
2005,09,20,03,20,8.80
2005,09,20,03,21,8.70
2005,09,20,03,22,8.70
2005,09,20,03,23,8.70
2005,09,20,03,24,8.70
2005,09,20,03,25,8.70
2005,09,20,03,26,8.70
2005,09,20,03,27,8.70
2005,09,20,03,28,8.70
2005,09,20,03,29,8.70
2005,09,20,03,30,8.60
2005,09,20,03,31,8.60
2005,09,20,03,32,8.60
2005,09,20,03,33,8.60
2005,09,20,03,34,8.70
2005,09,20,03,35,8.60
2005,09,20,03,36,8.60
2005,09,20,03,37,8.60
2005,09,20,03,38,8.60
2005,09,20,03,39,8.60
2005,09,20,03,40,8.60
2005,09,20,03,41,8.60
2005,09,20,03,42,8.60
2005,09,20,03,43,8.60
2005,09,20,03,44,8.60
2005,09,20,03,45,8.60
2005,09,20,03,46,8.50
2005,09,20,03,47,8.50
2005,09,20,03,48,8.50
2005,09,20,03,49,8.50
2005,09,20,03,50,8.50
2005,09,20,03,51,8.50
2005,09,20,03,52,8.50
2005,09,20,03,53,8.40
2005,09,20,03,54,8.40
2005,09,20,03,55,8.40
2005,09,20,03,56,8.40
2005,09,20,03,57,8.40
2005,09,20,03,58,8.40
2005,09,20,03,59,8.30
2005,09,20,04,00,8.30
2005,09,20,04,01,8.30
2005,09,20,04,02,8.30
2005,09,20,04,03,8.30
2005,09,20,04,04,8.30
2005,09,20,04,05,8.30
2005,09,20,04,06,8.30
2005,09,20,04,07,8.30
2005,09,20,04,08,8.20
2005,09,20,04,09,8.20
2005,09,20,04,10,8.20
2005,09,20,04,11,8.20
2005,09,20,04,12,8.20
2005,09,20,04,13,8.20
2005,09,20,04,14,8.20
2005,09,20,04,15,8.20
2005,09,20,04,16,8.20
2005,09,20,04,17,8.20
2005,09,20,04,18,8.10
2005,09,20,04,19,8.10
2005,09,20,04,20,8.10
2005,09,20,04,21,8.10
2005,09,20,04,22,8.10
2005,09,20,04,23,8.10
2005,09,20,04,24,8.10
2005,09,20,04,25,8.10
2005,09,20,04,26,8.00
2005,09,20,04,27,8.00
2005,09,20,04,28,8.00
2005,09,20,04,29,8.00
2005,09,20,04,30,8.00
2005,09,20,04,31,8.00
2005,09,20,04,32,7.90
2005,09,20,04,33,7.90
2005,09,20,04,34,7.90
2005,09,20,04,35,7.90
2005,09,20,04,36,7.90
2005,09,20,04,37,7.90
2005,09,20,04,38,7.90
2005,09,20,04,39,7.80
2005,09,20,04,40,7.80
2005,09,20,04,41,7.80
2005,09,20,04,42,7.80
2005,09,20,04,43,7.80
2005,09,20,04,44,7.80
2005,09,20,04,45,7.80
2005,09,20,04,46,7.80
2005,09,20,04,47,7.80
2005,09,20,04,48,7.80
2005,09,20,04,49,7.80
2005,09,20,04,50,7.80
2005,09,20,04,51,7.80
2005,09,20,04,52,7.80
2005,09,20,04,53,7.80
2005,09,20,04,54,7.70
2005,09,20,04,55,7.70
2005,09,20,04,56,7.70
2005,09,20,04,57,7.70
2005,09,20,04,58,7.70
2005,09,20,04,59,7.70
2005,09,20,05,00,7.70
2005,09,20,05,01,7.60
2005,09,20,05,02,7.60
2005,09,20,05,03,7.60
2005,09,20,05,04,7.60
2005,09,20,05,05,7.60
2005,09,20,05,06,7.60
2005,09,20,05,07,7.60
2005,09,20,05,08,7.60
2005,09,20,05,09,7.60
2005,09,20,05,10,7.60
2005,09,20,05,11,7.60
2005,09,20,05,12,7.60
2005,09,20,05,13,7.60
2005,09,20,05,14,7.60
2005,09,20,05,15,7.60
2005,09,20,05,16,7.60
2005,09,20,05,17,7.60
2005,09,20,05,18,7.60
2005,09,20,05,19,7.60
2005,09,20,05,20,7.60
2005,09,20,05,21,7.60
2005,09,20,05,22,7.60
2005,09,20,05,23,7.60
2005,09,20,05,24,7.60
2005,09,20,05,25,7.60
2005,09,20,05,26,7.60
2005,09,20,05,27,7.60
2005,09,20,05,28,7.50
2005,09,20,05,29,7.50
2005,09,20,05,30,7.50
2005,09,20,05,31,7.50
2005,09,20,05,32,7.50
2005,09,20,05,33,7.50
2005,09,20,05,34,7.50
2005,09,20,05,35,7.50
2005,09,20,05,36,7.40
2005,09,20,05,37,7.40
2005,09,20,05,38,7.40
2005,09,20,05,39,7.40
2005,09,20,05,40,7.40
2005,09,20,05,41,7.30
2005,09,20,05,42,7.30
2005,09,20,05,43,7.30
2005,09,20,05,44,7.30
2005,09,20,05,45,7.30
2005,09,20,05,46,7.30
2005,09,20,05,47,7.30
2005,09,20,05,48,7.30
2005,09,20,05,49,7.30
2005,09,20,05,50,7.30
2005,09,20,05,51,7.30
2005,09,20,05,52,7.30
2005,09,20,05,53,7.30
2005,09,20,05,54,7.30
2005,09,20,05,55,7.30
2005,09,20,05,56,7.30
2005,09,20,05,57,7.30
2005,09,20,05,58,7.30
2005,09,20,05,59,7.30
2005,09,20,06,00,7.30
2005,09,20,06,01,7.30
2005,09,20,06,02,7.30
2005,09,20,06,03,7.30
2005,09,20,06,04,7.30
2005,09,20,06,05,7.30
2005,09,20,06,06,7.30
2005,09,20,06,07,7.30
2005,09,20,06,08,7.30
2005,09,20,06,09,7.30
2005,09,20,06,10,7.30
2005,09,20,06,11,7.30
2005,09,20,06,12,7.20
2005,09,20,06,13,7.20
2005,09,20,06,14,7.20
2005,09,20,06,15,7.20
2005,09,20,06,16,7.20
2005,09,20,06,17,7.20
2005,09,20,06,18,7.20
2005,09,20,06,19,7.20
2005,09,20,06,20,7.10
2005,09,20,06,21,7.10
2005,09,20,06,22,7.10
2005,09,20,06,23,7.00
2005,09,20,06,24,7.00
2005,09,20,06,25,7.00
2005,09,20,06,26,7.00
2005,09,20,06,27,7.00
2005,09,20,06,28,7.00
2005,09,20,06,29,6.90
2005,09,20,06,30,6.90
2005,09,20,06,31,6.90
2005,09,20,06,32,6.90
2005,09,20,06,33,6.90
2005,09,20,06,34,6.90
2005,09,20,06,35,6.90
2005,09,20,06,36,6.90
2005,09,20,06,37,6.90
2005,09,20,06,38,6.90
2005,09,20,06,39,6.90
2005,09,20,06,40,6.90
2005,09,20,06,41,6.90
2005,09,20,06,42,6.80
2005,09,20,06,43,6.80
2005,09,20,06,44,6.80
2005,09,20,06,45,6.80
2005,09,20,06,46,6.80
2005,09,20,06,47,6.80
2005,09,20,06,48,6.80
2005,09,20,06,49,6.80
2005,09,20,06,50,6.80
2005,09,20,06,51,6.80
2005,09,20,06,52,6.80
2005,09,20,06,53,6.80
2005,09,20,06,54,6.80
2005,09,20,06,55,6.80
2005,09,20,06,56,6.80
2005,09,20,06,57,6.80
2005,09,20,06,58,6.80
2005,09,20,06,59,6.80
2005,09,20,07,00,6.70
2005,09,20,07,01,6.70
2005,09,20,07,02,6.70
2005,09,20,07,03,6.70
2005,09,20,07,04,6.70
2005,09,20,07,05,6.70
2005,09,20,07,06,6.70
2005,09,20,07,07,6.70
2005,09,20,07,08,6.70
2005,09,20,07,09,6.70
2005,09,20,07,10,6.70
2005,09,20,07,11,6.70
2005,09,20,07,12,6.70
2005,09,20,07,13,6.70
2005,09,20,07,14,6.70
2005,09,20,07,15,6.70
2005,09,20,07,16,6.70
2005,09,20,07,17,6.70
2005,09,20,07,18,6.70
2005,09,20,07,19,6.70
2005,09,20,07,20,6.70
2005,09,20,07,21,6.70
2005,09,20,07,22,6.70
2005,09,20,07,23,6.70
2005,09,20,07,24,6.70
2005,09,20,07,25,6.70
2005,09,20,07,26,6.70
2005,09,20,07,27,6.70
2005,09,20,07,28,6.60
2005,09,20,07,29,6.60
2005,09,20,07,30,6.60
2005,09,20,07,31,6.60
2005,09,20,07,32,6.60
2005,09,20,07,33,6.60
2005,09,20,07,34,6.60
2005,09,20,07,35,6.70
2005,09,20,07,36,6.70
2005,09,20,07,37,6.70
2005,09,20,07,38,6.70
2005,09,20,07,39,6.70
2005,09,20,07,40,6.80
2005,09,20,07,41,6.80
2005,09,20,07,42,6.80
2005,09,20,07,43,6.80
2005,09,20,07,44,6.80
2005,09,20,07,45,6.80
2005,09,20,07,46,6.80
2005,09,20,07,47,6.80
2005,09,20,07,48,6.80
2005,09,20,07,49,6.80
2005,09,20,07,50,6.80
2005,09,20,07,51,6.80
2005,09,20,07,52,6.80
2005,09,20,07,53,6.80
2005,09,20,07,54,6.90
2005,09,20,07,55,6.90
2005,09,20,07,56,7.00
2005,09,20,07,57,7.00
2005,09,20,07,58,7.10
2005,09,20,07,59,7.10
2005,09,20,08,00,7.20
2005,09,20,08,01,7.30
2005,09,20,08,02,7.30
2005,09,20,08,03,7.30
2005,09,20,08,04,7.30
2005,09,20,08,05,7.40
2005,09,20,08,06,7.40
2005,09,20,08,07,7.40
2005,09,20,08,08,7.50
2005,09,20,08,09,7.50
2005,09,20,08,10,7.50
2005,09,20,08,11,7.50
2005,09,20,08,12,7.50
2005,09,20,08,13,7.60
2005,09,20,08,14,7.60
2005,09,20,08,15,7.70
2005,09,20,08,16,7.80
2005,09,20,08,17,7.80
2005,09,20,08,18,7.90
2005,09,20,08,19,7.90
2005,09,20,08,20,8.00
2005,09,20,08,21,8.00
2005,09,20,08,22,8.10
2005,09,20,08,23,8.20
2005,09,20,08,24,8.20
2005,09,20,08,25,8.20
2005,09,20,08,26,8.20
2005,09,20,08,27,8.30
2005,09,20,08,28,8.40
2005,09,20,08,29,8.50
2005,09,20,08,30,8.70
2005,09,20,08,31,8.70
2005,09,20,08,32,8.80
2005,09,20,08,33,8.90
2005,09,20,08,34,9.10
2005,09,20,08,35,9.20
2005,09,20,08,36,9.30
2005,09,20,08,37,9.40
2005,09,20,08,38,9.50
2005,09,20,08,39,9.60
2005,09,20,08,40,9.70
2005,09,20,08,41,9.80
2005,09,20,08,42,9.90
2005,09,20,08,43,10.00
2005,09,20,08,44,10.20
2005,09,20,08,45,10.30
2005,09,20,08,46,10.50
2005,09,20,08,47,10.60
2005,09,20,08,48,10.70
2005,09,20,08,49,10.90
2005,09,20,08,50,11.10
2005,09,20,08,51,11.20
2005,09,20,08,52,11.30
2005,09,20,08,53,11.30
2005,09,20,08,54,11.40
2005,09,20,08,55,11.40
2005,09,20,08,56,11.60
2005,09,20,08,57,11.60
2005,09,20,08,58,11.60
2005,09,20,08,59,11.70
2005,09,20,09,00,11.80
2005,09,20,09,01,11.80
2005,09,20,09,02,11.90
2005,09,20,09,03,12.00
2005,09,20,09,04,12.10
2005,09,20,09,05,12.30
2005,09,20,09,06,12.50
2005,09,20,09,07,12.60
2005,09,20,09,08,12.70
2005,09,20,09,09,12.80
2005,09,20,09,10,12.90
2005,09,20,09,11,13.00
2005,09,20,09,12,13.00
2005,09,20,09,13,13.10
2005,09,20,09,14,13.20
2005,09,20,09,15,13.30
2005,09,20,09,16,13.40
2005,09,20,09,17,13.50
2005,09,20,09,18,13.50
2005,09,20,09,19,13.60
2005,09,20,09,20,13.60
2005,09,20,09,21,13.70
2005,09,20,09,22,13.70
2005,09,20,09,23,13.70
2005,09,20,09,24,13.70
2005,09,20,09,25,13.70
2005,09,20,09,26,13.70
2005,09,20,09,27,13.80
2005,09,20,09,28,14.00
2005,09,20,09,29,14.00
2005,09,20,09,30,14.20
2005,09,20,09,31,14.20
2005,09,20,09,32,14.20
2005,09,20,09,33,14.20
2005,09,20,09,34,14.20
2005,09,20,09,35,14.20
2005,09,20,09,36,14.30
2005,09,20,09,37,14.30
2005,09,20,09,38,14.30
2005,09,20,09,39,14.40
2005,09,20,09,40,14.40
2005,09,20,09,41,14.50
2005,09,20,09,42,14.50
2005,09,20,09,43,14.50
2005,09,20,09,44,14.50
2005,09,20,09,45,14.50
2005,09,20,09,46,14.60
2005,09,20,09,47,14.70
2005,09,20,09,48,14.70
2005,09,20,09,49,14.70
2005,09,20,09,50,14.80
2005,09,20,09,51,14.80
2005,09,20,09,52,14.90
2005,09,20,09,53,14.90
2005,09,20,09,54,15.00
2005,09,20,09,55,15.00
2005,09,20,09,56,15.10
2005,09,20,09,57,15.20
2005,09,20,09,58,15.30
2005,09,20,09,59,15.30
2005,09,20,10,00,15.30
2005,09,20,10,01,15.30
2005,09,20,10,02,15.30
2005,09,20,10,03,15.40
2005,09,20,10,04,15.40
2005,09,20,10,05,15.40
2005,09,20,10,06,15.40
2005,09,20,10,07,15.50
2005,09,20,10,08,15.60
2005,09,20,10,09,15.60
2005,09,20,10,10,15.70
2005,09,20,10,11,15.80
2005,09,20,10,12,15.70
2005,09,20,10,13,15.70
2005,09,20,10,14,15.60
2005,09,20,10,15,15.40
2005,09,20,10,16,15.40
2005,09,20,10,17,15.40
2005,09,20,10,18,15.50
2005,09,20,10,19,15.50
2005,09,20,10,20,15.40
2005,09,20,10,21,15.30
2005,09,20,10,22,15.40
2005,09,20,10,23,15.50
2005,09,20,10,24,15.50
2005,09,20,10,25,15.60
2005,09,20,10,26,15.70
2005,09,20,10,27,15.90
2005,09,20,10,28,15.90
2005,09,20,10,29,16.00
2005,09,20,10,30,16.10
2005,09,20,10,31,16.10
2005,09,20,10,32,16.20
2005,09,20,10,33,16.30
2005,09,20,10,34,16.30
2005,09,20,10,35,16.30
2005,09,20,10,36,16.30
2005,09,20,10,37,16.30
2005,09,20,10,38,16.40
2005,09,20,10,39,16.40
2005,09,20,10,40,16.30
2005,09,20,10,41,16.30
2005,09,20,10,42,16.20
2005,09,20,10,43,16.10
2005,09,20,10,44,15.90
2005,09,20,10,45,15.80
2005,09,20,10,46,15.80
2005,09,20,10,47,15.80
2005,09,20,10,48,15.90
2005,09,20,10,49,15.90
2005,09,20,10,50,16.00
2005,09,20,10,51,16.10
2005,09,20,10,52,16.20
2005,09,20,10,53,16.30
2005,09,20,10,54,16.40
2005,09,20,10,55,16.40
2005,09,20,10,56,16.40
2005,09,20,10,57,16.40
2005,09,20,10,58,16.40
2005,09,20,10,59,16.40
2005,09,20,11,00,16.40
2005,09,20,11,01,16.40
2005,09,20,11,02,16.40
2005,09,20,11,03,16.40
2005,09,20,11,04,16.40
2005,09,20,11,05,16.60
2005,09,20,11,06,16.70
2005,09,20,11,07,16.70
2005,09,20,11,08,16.70
2005,09,20,11,09,16.70
2005,09,20,11,10,16.70
2005,09,20,11,11,16.70
2005,09,20,11,12,16.70
2005,09,20,11,13,16.70
2005,09,20,11,14,16.70
2005,09,20,11,15,16.70
2005,09,20,11,16,16.50
2005,09,20,11,17,16.40
2005,09,20,11,18,16.30
2005,09,20,11,19,16.20
2005,09,20,11,20,16.20
2005,09,20,11,21,16.30
2005,09,20,11,22,16.30
2005,09,20,11,23,16.20
2005,09,20,11,24,16.20
2005,09,20,11,25,16.10
2005,09,20,11,26,16.10
2005,09,20,11,27,16.20
2005,09,20,11,28,16.20
2005,09,20,11,29,16.30
2005,09,20,11,30,16.20
2005,09,20,11,31,16.20
2005,09,20,11,32,16.10
2005,09,20,11,33,16.10
2005,09,20,11,34,16.10
2005,09,20,11,35,16.10
2005,09,20,11,36,16.20
2005,09,20,11,37,16.20
2005,09,20,11,38,16.30
2005,09,20,11,39,16.30
2005,09,20,11,40,16.30
2005,09,20,11,41,16.30
2005,09,20,11,42,16.40
2005,09,20,11,43,16.30
2005,09,20,11,44,16.30
2005,09,20,11,45,16.30
2005,09,20,11,46,16.40
2005,09,20,11,47,16.40
2005,09,20,11,48,16.40
2005,09,20,11,49,16.50
2005,09,20,11,50,16.70
2005,09,20,11,51,16.70
2005,09,20,11,52,16.90
2005,09,20,11,53,16.90
2005,09,20,11,54,17.00
2005,09,20,11,55,16.90
2005,09,20,11,56,16.80
2005,09,20,11,57,16.70
2005,09,20,11,58,16.70
2005,09,20,11,59,16.70
2005,09,20,12,00,16.70
2005,09,20,12,01,16.80
2005,09,20,12,02,16.80
2005,09,20,12,03,16.90
2005,09,20,12,04,16.90
2005,09,20,12,05,16.90
2005,09,20,12,06,16.90
2005,09,20,12,07,17.00
2005,09,20,12,08,17.00
2005,09,20,12,09,16.90
2005,09,20,12,10,16.90
2005,09,20,12,11,16.90
2005,09,20,12,12,16.90
2005,09,20,12,13,16.90
2005,09,20,12,14,17.00
2005,09,20,12,15,17.00
2005,09,20,12,16,16.90
2005,09,20,12,17,16.90
2005,09,20,12,18,16.90
2005,09,20,12,19,16.80
2005,09,20,12,20,16.80
2005,09,20,12,21,16.70
2005,09,20,12,22,16.70
2005,09,20,12,23,16.70
2005,09,20,12,24,16.70
2005,09,20,12,25,16.90
2005,09,20,12,26,17.00
2005,09,20,12,27,17.00
2005,09,20,12,28,17.10
2005,09,20,12,29,17.20
2005,09,20,12,30,17.30
2005,09,20,12,31,17.40
2005,09,20,12,32,17.60
2005,09,20,12,33,17.70
2005,09,20,12,34,17.90
2005,09,20,12,35,17.90
2005,09,20,12,36,17.90
2005,09,20,12,37,17.80
2005,09,20,12,38,17.80
2005,09,20,12,39,17.70
2005,09,20,12,40,17.70
2005,09,20,12,41,17.70
2005,09,20,12,42,17.70
2005,09,20,12,43,17.60
2005,09,20,12,44,17.50
2005,09,20,12,45,17.40
2005,09,20,12,46,17.20
2005,09,20,12,47,17.10
2005,09,20,12,48,17.00
2005,09,20,12,49,17.00
2005,09,20,12,50,17.10
2005,09,20,12,51,17.10
2005,09,20,12,52,17.00
2005,09,20,12,53,16.90
2005,09,20,12,54,16.90
2005,09,20,12,55,17.00
2005,09,20,12,56,17.10
2005,09,20,12,57,17.20
2005,09,20,12,58,17.20
2005,09,20,12,59,17.20
2005,09,20,13,00,17.20
2005,09,20,13,01,17.30
2005,09,20,13,02,17.30
2005,09,20,13,03,17.40
2005,09,20,13,04,17.50
2005,09,20,13,05,17.70
2005,09,20,13,06,17.70
2005,09,20,13,07,17.70
2005,09,20,13,08,17.80
2005,09,20,13,09,17.80
2005,09,20,13,10,17.90
2005,09,20,13,11,17.90
2005,09,20,13,12,18.00
2005,09,20,13,13,18.10
2005,09,20,13,14,17.90
2005,09,20,13,15,17.90
2005,09,20,13,16,17.70
2005,09,20,13,17,17.60
2005,09,20,13,18,17.60
2005,09,20,13,19,17.70
2005,09,20,13,20,17.70
2005,09,20,13,21,17.60
2005,09,20,13,22,17.60
2005,09,20,13,23,17.60
2005,09,20,13,24,17.60
2005,09,20,13,25,17.40
2005,09,20,13,26,17.30
2005,09,20,13,27,17.30
2005,09,20,13,28,17.30
2005,09,20,13,29,17.30
2005,09,20,13,30,17.30
2005,09,20,13,31,17.30
2005,09,20,13,32,17.40
2005,09,20,13,33,17.50
2005,09,20,13,34,17.60
2005,09,20,13,35,17.60
2005,09,20,13,36,17.70
2005,09,20,13,37,17.70
2005,09,20,13,38,17.70
2005,09,20,13,39,17.70
2005,09,20,13,40,17.80
2005,09,20,13,41,17.90
2005,09,20,13,42,17.90
2005,09,20,13,43,18.00
2005,09,20,13,44,18.10
2005,09,20,13,45,18.20
2005,09,20,13,46,18.20
2005,09,20,13,47,18.20
2005,09,20,13,48,18.20
2005,09,20,13,49,18.20
2005,09,20,13,50,18.30
2005,09,20,13,51,18.40
2005,09,20,13,52,18.50
2005,09,20,13,53,18.50
2005,09,20,13,54,18.50
2005,09,20,13,55,18.60
2005,09,20,13,56,18.60
2005,09,20,13,57,18.60
2005,09,20,13,58,18.50
2005,09,20,13,59,18.50
2005,09,20,14,00,18.40
2005,09,20,14,01,18.40
2005,09,20,14,02,18.30
2005,09,20,14,03,18.20
2005,09,20,14,04,18.00
2005,09,20,14,05,17.90
2005,09,20,14,06,18.10
2005,09,20,14,07,18.10
2005,09,20,14,08,18.10
2005,09,20,14,09,18.10
2005,09,20,14,10,18.20
2005,09,20,14,11,18.10
2005,09,20,14,12,18.00
2005,09,20,14,13,17.90
2005,09,20,14,14,17.90
2005,09,20,14,15,17.80
2005,09,20,14,16,17.80
2005,09,20,14,17,17.90
2005,09,20,14,18,17.90
2005,09,20,14,19,17.80
2005,09,20,14,20,17.80
2005,09,20,14,21,17.80
2005,09,20,14,22,17.80
2005,09,20,14,23,17.90
2005,09,20,14,24,17.90
2005,09,20,14,25,17.90
2005,09,20,14,26,17.90
2005,09,20,14,27,17.80
2005,09,20,14,28,17.70
2005,09,20,14,29,17.70
2005,09,20,14,30,17.60
2005,09,20,14,31,17.50
2005,09,20,14,32,17.50
2005,09,20,14,33,17.60
2005,09,20,14,34,17.60
2005,09,20,14,35,17.50
2005,09,20,14,36,17.60
2005,09,20,14,37,17.70
2005,09,20,14,38,17.70
2005,09,20,14,39,17.60
2005,09,20,14,40,17.60
2005,09,20,14,41,17.50
2005,09,20,14,42,17.40
2005,09,20,14,43,17.30
2005,09,20,14,44,17.30
2005,09,20,14,45,17.30
2005,09,20,14,46,17.30
2005,09,20,14,47,17.40
2005,09,20,14,48,17.50
2005,09,20,14,49,17.50
2005,09,20,14,50,17.50
2005,09,20,14,51,17.60
2005,09,20,14,52,17.60
2005,09,20,14,53,17.60
2005,09,20,14,54,17.70
2005,09,20,14,55,17.70
2005,09,20,14,56,17.80
2005,09,20,14,57,17.80
2005,09,20,14,58,17.80
2005,09,20,14,59,17.90
2005,09,20,15,00,17.90
2005,09,20,15,01,17.90
2005,09,20,15,02,17.90
2005,09,20,15,03,18.10
2005,09,20,15,04,18.20
2005,09,20,15,05,18.30
2005,09,20,15,06,18.30
2005,09,20,15,07,18.30
2005,09,20,15,08,18.30
2005,09,20,15,09,18.30
2005,09,20,15,10,18.30
2005,09,20,15,11,18.30
2005,09,20,15,12,18.40
2005,09,20,15,13,18.50
2005,09,20,15,14,18.50
2005,09,20,15,15,18.40
2005,09,20,15,16,18.40
2005,09,20,15,17,18.30
2005,09,20,15,18,18.30
2005,09,20,15,19,18.40
2005,09,20,15,20,18.30
2005,09,20,15,21,18.30
2005,09,20,15,22,18.10
2005,09,20,15,23,18.10
2005,09,20,15,24,18.20
2005,09,20,15,25,18.20
2005,09,20,15,26,18.20
2005,09,20,15,27,18.20
2005,09,20,15,28,18.20
2005,09,20,15,29,18.30
2005,09,20,15,30,18.30
2005,09,20,15,31,18.30
2005,09,20,15,32,18.30
2005,09,20,15,33,18.30
2005,09,20,15,34,18.20
2005,09,20,15,35,18.20
2005,09,20,15,36,18.20
2005,09,20,15,37,18.00
2005,09,20,15,38,17.90
2005,09,20,15,39,17.90
2005,09,20,15,40,17.90
2005,09,20,15,41,18.00
2005,09,20,15,42,18.20
2005,09,20,15,43,18.20
2005,09,20,15,44,18.30
2005,09,20,15,45,18.30
2005,09,20,15,46,18.30
2005,09,20,15,47,18.30
2005,09,20,15,48,18.20
2005,09,20,15,49,18.20
2005,09,20,15,50,18.20
2005,09,20,15,51,18.20
2005,09,20,15,52,18.30
2005,09,20,15,53,18.30
2005,09,20,15,54,18.30
2005,09,20,15,55,18.40
2005,09,20,15,56,18.40
2005,09,20,15,57,18.40
2005,09,20,15,58,18.40
2005,09,20,15,59,18.40
2005,09,20,16,00,18.40
2005,09,20,16,01,18.50
2005,09,20,16,02,18.50
2005,09,20,16,03,18.30
2005,09,20,16,04,18.20
2005,09,20,16,05,18.20
2005,09,20,16,06,18.20
2005,09,20,16,07,18.20
2005,09,20,16,08,18.20
2005,09,20,16,09,18.30
2005,09,20,16,10,18.40
2005,09,20,16,11,18.40
2005,09,20,16,12,18.40
2005,09,20,16,13,18.60
2005,09,20,16,14,18.60
2005,09,20,16,15,18.70
2005,09,20,16,16,18.70
2005,09,20,16,17,18.60
2005,09,20,16,18,18.50
2005,09,20,16,19,18.50
2005,09,20,16,20,18.60
2005,09,20,16,21,18.50
2005,09,20,16,22,18.50
2005,09,20,16,23,18.50
2005,09,20,16,24,18.40
2005,09,20,16,25,18.40
2005,09,20,16,26,18.40
2005,09,20,16,27,18.30
2005,09,20,16,28,18.30
2005,09,20,16,29,18.20
2005,09,20,16,30,18.20
2005,09,20,16,31,18.20
2005,09,20,16,32,18.20
2005,09,20,16,33,18.20
2005,09,20,16,34,18.20
2005,09,20,16,35,18.20
2005,09,20,16,36,18.20
2005,09,20,16,37,18.20
2005,09,20,16,38,18.10
2005,09,20,16,39,18.10
2005,09,20,16,40,18.10
2005,09,20,16,41,18.10
2005,09,20,16,42,18.20
2005,09,20,16,43,18.20
2005,09,20,16,44,18.20
2005,09,20,16,45,18.10
2005,09,20,16,46,18.10
2005,09,20,16,47,18.10
2005,09,20,16,48,18.00
2005,09,20,16,49,17.90
2005,09,20,16,50,17.90
2005,09,20,16,51,17.90
2005,09,20,16,52,17.90
2005,09,20,16,53,17.90
2005,09,20,16,54,17.90
2005,09,20,16,55,17.90
2005,09,20,16,56,17.80
2005,09,20,16,57,17.80
2005,09,20,16,58,17.80
2005,09,20,16,59,17.80
2005,09,20,17,00,17.80
2005,09,20,17,01,17.80
2005,09,20,17,02,17.90
2005,09,20,17,03,17.80
2005,09,20,17,04,17.80
2005,09,20,17,05,17.80
2005,09,20,17,06,17.70
2005,09,20,17,07,17.80
2005,09,20,17,08,17.80
2005,09,20,17,09,17.90
2005,09,20,17,10,17.90
2005,09,20,17,11,17.90
2005,09,20,17,12,17.80
2005,09,20,17,13,17.70
2005,09,20,17,14,17.70
2005,09,20,17,15,17.70
2005,09,20,17,16,17.60
2005,09,20,17,17,17.60
2005,09,20,17,18,17.50
2005,09,20,17,19,17.50
2005,09,20,17,20,17.50
2005,09,20,17,21,17.50
2005,09,20,17,22,17.50
2005,09,20,17,23,17.50
2005,09,20,17,24,17.50
2005,09,20,17,25,17.50
2005,09,20,17,26,17.50
2005,09,20,17,27,17.50
2005,09,20,17,28,17.50
2005,09,20,17,29,17.50
2005,09,20,17,30,17.40
2005,09,20,17,31,17.40
2005,09,20,17,32,17.40
2005,09,20,17,33,17.40
2005,09,20,17,34,17.40
2005,09,20,17,35,17.40
2005,09,20,17,36,17.40